This demonstration page uses our WeatherBlox Daily Observations layout. Learn more.

Left ArrowRight Arrow

44.89941, -97.11507

Hourly Observations for July 27, 2016

Temp ( °F °C ) Dew Point ( °F °C ) Humidity (%) Winds ( mph kmh ) Pressure ( in mb ) Visibility ( mi km ) Precip ( " mm )
12:53 am 00:53 Clear 72 22.2 64 17.8 76 76 E 6 9 29.92 1013 10 16 0.00 0.00
1:53 am 01:53 Clear 71 21.7 64 17.8 79 79 ESE 6 9 29.91 1013 10 16 0.00 0.00
2:53 am 02:53 Partly Cloudy 70 21.1 63 17.2 79 79 ENE 7 11 29.94 1014 10 16 0.00 0.00
3:27 am 03:27 Cloudy with Nearby Thunderstorms 67 19.4 63 17.2 87 87 NNE 16 26 29.94 1014 8 13 0.03 0.76
3:34 am 03:34 Cloudy with Strong Thunderstorms 66 18.9 63 17.2 90 90 NNE 14 22 29.94 1014 4 6 0.08 2.03
3:49 am 03:49 Cloudy with Nearby Thunderstorms 66 19 63 17 88 88 NE 14 22 29.94 1014 10 16 0.12 3.05
3:53 am 03:53 Cloudy with Nearby Thunderstorms 66 18.9 63 17.2 90 90 ENE 10 17 29.94 1014 10 16 0.13 3.30
4:08 am 04:08 Mostly Cloudy 66 18.9 63 17.2 90 90 NE 9 15 29.94 1014 10 16 0.00 0.03
4:28 am 04:28 Partly Cloudy 65 18.3 62 16.7 90 90 NE 8 13 29.94 1014 10 16 0.00 0.03
4:53 am 04:53 Mostly Cloudy 65 18.3 63 17.2 93 93 NNE 9 15 29.95 1014 10 16 0.00 0.03
5:09 am 05:09 Mostly Cloudy 65 18.3 63 17.2 93 93 NNE 9 15 29.94 1014 10 16 0.00 0.00
5:37 am 05:37 Cloudy 65 18.3 63 17.2 93 93 E 6 9 29.94 1014 10 16 0.00 0.00
5:53 am 05:53 Cloudy 66 18.9 63 17.2 90 90 ENE 5 7 29.95 1014 10 16 0.00 0.00
6:06 am 06:06 Cloudy with Nearby Thunderstorms 66 18.9 63 17.2 90 90 N 6 9 29.94 1014 10 16 0.00 0.00
6:41 am 06:41 Mostly Sunny 66 18.9 62 16.7 87 87 NNE 3 6 29.94 1014 10 16 0.00 0.00
6:53 am 06:53 Mostly Sunny 65 18.3 62 16.7 90 90 Calm 29.96 1015 10 16 0.00 0.00
7:53 am 07:53 Sunny 68 20 64 17.8 87 87 NNW 9 15 29.98 1015 10 16 0.00 0.00
8:11 am 08:11 Mostly Cloudy 69 20.6 64 17.8 84 84 N 10 17 29.91 1013 10 16 0.00 0.00
8:33 am 08:33 Partly Cloudy 69 20.6 64 17.8 84 84 N 15 24 29.91 1013 10 16 0.00 0.00
8:53 am 08:53 Partly Cloudy 70 21.1 64 17.8 82 82 NNE 13 20 29.98 1015 10 16 0.00 0.00
9:04 am 09:04 Mostly Cloudy 70 21.1 64 17.8 82 82 N 12 19 29.91 1013 10 16 0.00 0.00
9:21 am 09:21 Mostly Cloudy 71 21.7 64 17.8 79 79 N 13 20 29.94 1014 10 16 0.00 0.00
9:32 am 09:32 Mostly Cloudy 70 21.1 63 17.2 79 79 N 13 20 29.94 1014 10 16 0.00 0.00
9:53 am 09:53 Mostly Cloudy 71 21.7 63 17.2 76 76 N 13 20 30.00 1016 10 16 0.00 0.00
10:29 am 10:29 Partly Cloudy 73 22.8 63 17.2 71 71 N 13 20 29.94 1014 10 16 0.00 0.00
10:39 am 10:39 Mostly Cloudy 72 22.2 63 17.2 73 73 N 13 20 29.94 1014 10 16 0.00 0.00
10:53 am 10:53 Mostly Cloudy 72 22.2 63 17.2 73 73 N 10 17 30.00 1016 10 16 0.00 0.00
11:20 am 11:20 Partly Cloudy 76 24.4 64 17.8 67 67 NNE 12 19 29.94 1014 10 16 0.00 0.00
11:53 am 11:53 Partly Cloudy 78 25.6 64 17.8 62 62 N 10 17 30.01 1016 10 16 0.00 0.00
12:53 pm 12:53 Partly Cloudy 78 25.6 64 17.8 62 62 N 15 24 30.01 1016 10 16 0.00 0.00
1:53 pm 13:53 Partly Cloudy 80 26.7 63 17.2 56 56 N 12 19 30.00 1016 10 16 0.00 0.00
2:53 pm 14:53 Sunny 80 26.7 62 16.7 54 54 NNE 15 24 29.99 1016 10 16 0.00 0.00
3:53 pm 15:53 Mostly Sunny 81 27.2 62 16.7 53 53 N 15 24 30.00 1016 10 16 0.00 0.00
4:53 pm 16:53 Mostly Sunny 79 26.1 61 16.1 54 54 NNE 15 24 30.00 1016 10 16 0.00 0.00
5:53 pm 17:53 Sunny 79 26.1 58 14.4 49 49 NNE 17 28 30.00 1016 10 16 0.00 0.00
6:53 pm 18:53 Sunny 78 25.6 59 15 52 52 NNE 14 22 30.01 1016 10 16 0.00 0.00
7:53 pm 19:53 Sunny 75 23.9 56 13.3 52 52 NNE 12 19 30.01 1016 10 16 0.00 0.00
8:53 pm 20:53 Sunny 70 21.1 57 13.9 64 64 N 3 6 30.04 1017 10 16 0.00 0.00
9:53 pm 21:53 Clear 65 18.3 59 15 81 81 NNE 5 7 30.04 1017 10 16 0.00 0.00
10:53 pm 22:53 Clear 63 17.2 58 14.4 84 84 N 6 9 30.05 1018 10 16 0.00 0.00
11:53 pm 23:53 Clear 62 16.7 57 13.9 84 84 N 7 11 30.06 1018 10 16 0.00 0.00

Powered by AerisWeather